Flag for Norway Weather past 2 weeks in Horten, Norway

Now
57 °F

Partly cloudy.


Feels Like: 51 °F
Forecast: 59 / 67 °F
Wind: 33 mph from Southeast

Location: Oseberg

Current Time: Aug 4, 2015 at 7:29:55 AM

Latest Report: Aug 4, 2015 at 5:50 AM


Visibility: N/A

Pressure: 29.71 "Hg

Humidity: 94%

Dew point: 55 °F

Location of HortenLocation

Historic Weather in Horten — Graph

°F

Horten temperature yesterday

Maximum temperature yesterday: 61 °F (at 10:50 PM)
Minimum temperature yesterday: 54 °F (at 12:50 AM)
Average temperature yesterday: 56 °F

Past Weeks' High & Low Weather Summary

 TemperatureHumidityPressure
High63 °F (Aug 4, 12:50 AM)100% (Jul 21, 9:20 AM)30.09 "Hg (Jul 21, 9:20 AM)
Low48 °F (Jul 31, 4:50 AM)59% (Jul 20, 4:50 PM)29.42 "Hg (Jul 21, 12:20 PM)
Average54 °F81%29.73 "Hg
* Reported Jul 20 6:20 AM — Aug 4 5:50 AM, Horten, Weather by CustomWeather, © 2015

Note: Actual official high and low records may vary slightly from our data, if they occured in-between our weather recording intervals... More about our weather records

Advertising

Horten weather history for previous 24 hours

 ConditionsComfort  
Time TempWeatherWind HumidityBarometerVisibility
5:50 AM
Tue, Aug 4
57 °FPartly cloudy.33 mph94%29.71 "HgN/A
4:50 AM59 °FPartly cloudy.35 mph82%29.71 "HgN/A
3:50 AM59 °FPartly cloudy.33 mph82%29.74 "HgN/A
2:50 AM59 °FPassing clouds.29 mph77%29.77 "HgN/A
1:50 AM61 °FPassing clouds.36 mph68%29.74 "HgN/A
12:50 AM63 °FPassing clouds.39 mph59%29.74 "HgN/A
11:50 PM
Mon, Aug 3
61 °FPassing clouds.39 mph63%29.77 "HgN/A
10:50 PM61 °FClear.37 mph68%29.80 "Hg10 mi
9:50 PM59 °FSunny.36 mph72%29.80 "Hg10 mi
9:17 PM59 °FPartly sunny.35 mph72%29.83 "HgN/A
8:50 PM59 °FSunny.37 mph68%29.83 "Hg10 mi
7:50 PM59 °FSunny.37 mph68%29.83 "Hg10 mi
6:50 PM59 °FSunny.37 mph68%29.86 "Hg10 mi
6:20 PM57 °FSunny.36 mph72%29.86 "Hg10 mi
5:50 PM57 °FPassing clouds.36 mph72%29.89 "HgN/A
5:20 PM57 °FPartly sunny.35 mph72%29.89 "HgN/A
4:50 PM57 °FBroken clouds.33 mph72%29.92 "HgN/A
4:20 PM55 °FPartly sunny.32 mph77%29.92 "HgN/A
3:50 PM55 °FBroken clouds.31 mph77%29.95 "HgN/A
3:20 PM55 °FPartly sunny.31 mph77%29.95 "HgN/A
2:50 PM55 °FBroken clouds.28 mph77%29.98 "HgN/A
2:20 PM55 °FBroken clouds.26 mph82%29.98 "HgN/A
1:20 PM55 °FScattered clouds.24 mph82%29.98 "HgN/A
12:50 PM54 °FScattered clouds.23 mph88%30.01 "HgN/A
12:20 PM55 °FScattered clouds.24 mph77%30.01 "HgN/A
11:20 AM54 °FSprinkles. Partly sunny.17 mph88%30.01 "HgN/A
10:50 AM54 °FSprinkles. Partly sunny.16 mph88%30.01 "HgN/A
10:20 AM54 °FSprinkles. Partly sunny.23 mph88%30.01 "HgN/A
9:50 AM54 °FPartly sunny.23 mph94%30.01 "HgN/A
9:22 AM54 °FPartly sunny.21 mph88%30.01 "HgN/A
8:50 AM54 °FPartly sunny.23 mph88%30.04 "HgN/A
8:20 AM54 °FPartly sunny.16 mph88%30.04 "HgN/A
7:50 AM54 °FDrizzle. Partly sunny.16 mph88%30.04 "HgN/A
7:20 AM54 °FPartly sunny.20 mph88%30.04 "HgN/A
Weather by CustomWeather, © 2015

See weather overviewHow to use our weather pages